[Iaude] MPEC X303: 2023 XC14 [a=1.20,e=0.26,i=11.7,H=23.4]

mpec at marsden.cfa.harvard.edu mpec at marsden.cfa.harvard.edu
Fri Dec 15 05:27:14 EST 2023


M.P.E.C. 2023-X303                            Issued 2023 December 15, 10:25 UT

     The Minor Planet Electronic Circulars contain information on unusual
         minor planets, routine data on comets and natural satellites,
         and occasional editorial announcements.  They are published
    on behalf of Division F of the International Astronomical Union by the
          Minor Planet Center, Smithsonian Astrophysical Observatory,
                          Cambridge, MA 02138, U.S.A.
			  
             Prepared using the Tamkin Foundation Computer Network

                              MPC at CFA.HARVARD.EDU
            URL https://www.minorplanetcenter.net/    ISSN 1523-6714

                                   2023 XC14                                    


Observations:
     K23X14C*1C2023 12 13.43869310 47 52.811+32 57 43.24         20.51GVEX303G96
     K23X14C 1C2023 12 13.44593510 47 55.903+32 56 52.87         20.93GVEX303G96
     K23X14C 1C2023 12 13.45109410 47 58.106+32 56 17.05         21.49GVEX303G96
     K23X14C 1C2023 12 13.45826810 48 01.181+32 55 27.55         21.53GVEX303G96
     K23X14C KC2023 12 13.48681710 48 13.320+32 52 08.10         22.24GVEX303I52
     K23X14C KC2023 12 13.49192110 48 15.560+32 51 31.90               VEX303I52
     K23X14C KC2023 12 13.49447410 48 16.610+32 51 13.70               VEX303I52
     K23X14C  C2023 12 13.55440710 48 45.922+32 44 18.71         20.78GVEX303F52
     K23X14C  C2023 12 13.57887310 48 56.350+32 41 27.75         21.10GVEX303F52
     K23X14C !C2023 12 14.22183 10 53 48.01 +31 23 24.3          21.6 GVEX303J04
     K23X14C !C2023 12 14.23401 10 53 53.22 +31 21 54.4          20.6 GVEX303J04
     K23X14C !C2023 12 14.24623 10 53 58.38 +31 20 24.1          20.7 GVEX303J04
     K23X14C KC2023 12 14.40521310 55 11.87 +31 00 15.8          20.8 GVEX303H21
     K23X14C KC2023 12 14.40810210 55 13.11 +30 59 54.2          20.9 GVEX303H21
     K23X14C KC2023 12 14.41099010 55 14.37 +30 59 32.7          21.0 GVEX303H21
     K23X14C 1C2023 12 14.48571810 55 48.281+30 50 17.84         21.13GVEX303G96
     K23X14C 1C2023 12 14.49086810 55 50.506+30 49 38.82         20.34GVEX303G96
     K23X14C 1C2023 12 14.49601710 55 52.691+30 49 00.16         20.60GVEX303G96
     K23X14C 1C2023 12 14.50115910 55 54.901+30 48 20.81         20.50GVEX303G96
     K23X14C KC2023 12 14.52214110 56 03.818+30 45 42.34         20.81GVEX303I52
     K23X14C KC2023 12 14.52634510 56 05.629+30 45 10.08         20.73GVEX303I52
     K23X14C KC2023 12 14.53055810 56 07.415+30 44 38.26         20.66GVEX303I52
     K23X14C KC2023 12 14.53477210 56 09.240+30 44 06.18         20.71GVEX303I52

Observer details:
F52 Pan-STARRS 2, Haleakala.  Observers J. Herman, T. Lowe, P. Minguez, A.
    Schultz, I. Smith.  Measurers K. Chambers, T. de Boer, J. Fairlamb, H.
    Gao, M. Huber, C.-C. Lin, E. Magnier, Y. Ramanjooloo, R. Wainscoat, R.
    Weryk.  1.8-m Ritchey-Chretien + CCD.
G96 Mt. Lemmon Survey.  Observer J. K. Hogan.  Measurers E. C. Beshore, D.
    Fay, J. B. Fazekas, D. C. Fuls, A. R. Gibbs, A. D. Grauer, H. Groeller, J.
    K. Hogan, R. A. Kowalski, S. M. Larson, G. J. Leonard, D. Rankin, R. L.
    Seaman, F. C. Shelly, K. W. Wierzchos.  1.5-m reflector + 10K CCD.
H21 Astronomical Research Observatory, Westfield.  Observer R. Holmes.
    Measurers T. Linder, R. Holmes, L. Horn.  1.3-m f/4.0 astrograph + CCD.
I52 Steward Observatory, Mt. Lemmon Station.  Observer K. W. Wierzchos.
    Measurers E. C. Beshore, D. Fay, J. B. Fazekas, D. C. Fuls, A. R. Gibbs,
    A. D. Grauer, H. Groeller, J. K. Hogan, R. A. Kowalski, S. M. Larson, G.
    J. Leonard, D. Rankin, R. L. Seaman, F. C. Shelly, K. W. Wierzchos.  1.0-m
    prime focus + CCD.
J04 ESA Optical Ground Station, Tenerife.  Observers P. Ruiz, M. Micheli, F.
    Ocana, L. Conversi.  Measurers R. Kresken, M. Micheli, F. Ocana, A.
    Knofel, M. Busch, E. Schwab.  1.0-m f/4.4 reflector + CCD.

Orbital elements:
2023 XC14                                                Earth MOID = 0.0014 AU
Epoch 2023 Sept. 13.0 TT = JDT 2460200.5                Bell                    
M 246.98687              (2000.0)            P               Q                  
n   0.75078250     Peri.  236.49655     -0.89820485     -0.39122778             
a   1.1989285      Node   279.76289     +0.43953973     -0.79339529             
e   0.2550328      Incl.   11.73392     +0.00573399     -0.46633114             
P   1.31           H   23.44          G   0.15           U   8                  
Residuals in seconds of arc
231213 G96  0.1+  0.1-    231213 F52  0.2-  0.0     231214 G96  0.1+  0.3+
231213 G96  0.0   0.2-    231214 J04  0.0   0.2-    231214 G96  0.1-  0.4+
231213 G96  0.0   0.3-    231214 J04  0.4+  0.1-    231214 G96  0.1+  0.2-
231213 G96  0.1+  0.1+    231214 J04  0.0   0.2+    231214 I52  0.2-  0.1+
231213 I52  0.2-  0.2-    231214 H21  0.0   0.1-    231214 I52  0.0   0.2-
231213 I52  0.7+  0.6-    231214 H21  0.1-  0.1-    231214 I52  0.1-  0.1-
231213 I52  0.3+  0.9-    231214 H21  0.1+  0.0     231214 I52  0.3+  0.1-
231213 F52  0.2-  0.3+    231214 G96  0.2-  0.5+

Ephemeris:
2023 XC14                a,e,i = 1.20, 0.26, 12                  q = 0.8932
Date    TT    R. A. (2000) Decl.     Delta      r    Elong.  Phase     V
2023 11 15    07 44 57.6 +53 36 00   0.2756  1.1464   118.4    49.4    22.8
...
2023 11 30    09 12 09.9 +48 58 44   0.1862  1.0844   117.3    53.9    21.9
...
2023 12 08    10 07 28.2 +41 38 40   0.1453  1.0519   113.6    59.1    21.5
...
2023 12 14    10 52 05.0 +31 50 45   0.1203  1.0282   108.1    65.5    21.2
2023 12 15    10 59 41.5 +29 44 20   0.1168  1.0244   106.9    66.9    21.2
2023 12 16    11 07 20.1 +27 29 04   0.1136  1.0205   105.5    68.3    21.2
...
2023 12 22    11 53 32.3 +11 02 03   0.1004  0.9981    95.4    78.9    21.2
...
2023 12 30    12 54 25.2 -14 01 27   0.1034  0.9704    79.8    94.2    21.8
...
2024 01 14    14 39 19.0 -42 44 10   0.1580  0.9274    64.8   106.3    23.2

M. P. C. Staff               (C) Copyright 2023 MPC           M.P.E.C. 2023-X303





More information about the Iaude mailing list